Bloemfontein, South Africa

12:29 PM SAST on August 20, 2017 (GMT +0200)
Bloemfontein

Weather History for FABL - January, 2013

Change the Weather History Date:

Saturday, January 12, 2013

  Actual Average Record
Temperature  
Mean Temperature 72 °F -  
Max Temperature 89 °F 83 °F 92 °F (2015)
Min Temperature 55 °F 56 °F 58 °F (2016)
Cooling Degree Days 7    
Growing Degree Days 22 (Base 50)    
Moisture  
Dew Point 52 °F    
Average Humidity 52    
Maximum Humidity 88    
Minimum Humidity 9    
Precipitation  
Precipitation 0.00 in 0.12 in - ()
Sea Level Pressure  
Sea Level Pressure 30.05 in    
Wind  
Wind Speed 5 mph ()    
Max Wind Speed 13 mph    
Max Gust Speed -    
Visibility 8.8 miles    
Events      
Averages and records for this station are not official NWS values.
T = Trace of Precipitation, MM = Missing Value Source: Averaged Metar Reports

Daily Weather History Graph

Daily Weather History Graph

Search for Another Location

Airport or City:

Trip Planner

Search our weather history database for the weather conditions in past years. The results will help you decide how hot, cold, wet, or windy it might be!

Date:

Astronomy

Jan. 12, 2013 Rise Set
Actual Time 5:27 AM SAST 7:18 PM SAST
Civil Twilight 5:01 AM SAST 7:44 PM SAST
Nautical Twilight 4:29 AM SAST 8:16 PM SAST
Astronomical Twilight 3:55 AM SAST 8:50 PM SAST
Moon 6:03 AM SAST (1/12) 7:43 PM SAST (1/12)
Length of Visible Light 14h 43m
Length of Day
13h 50m
New Moon, 1% of the Moon is Illuminated
Jan 12
New Moon
Jan 19
First Quarter
Jan 27
Full
Feb 3
Last Quarter
Feb 10
New

Hourly Weather History & Observations

Time (SAST) Temp. Heat Index Dew Point Humidity Pressure Visibility Wind Dir Wind Speed Gust Speed Precip Events Conditions
12:00 AM 64.4 °F - 55.4 °F 73% 30.06 in - NNE 6.9 mph - N/A   Unknown
1:00 AM 62.6 °F - 55.4 °F 77% 30.06 in - NNE 9.2 mph - N/A   Unknown
2:00 AM 62 °F - 55 °F 72%  in - ENE 6.9 mph - -  
2:00 AM 60.8 °F - 53.6 °F 77% 30.04 in - ENE 6.9 mph - N/A   Unknown
3:00 AM 59.0 °F - 53.6 °F 82% 30.06 in - ESE 2.3 mph - N/A   Unknown
4:00 AM 57.2 °F - 53.6 °F 88% 30.06 in - ESE 3.5 mph - N/A   Unknown
5:00 AM 56 °F - 53 °F 86%  in 19 mi ESE 3.5 mph - -  
5:00 AM 55.4 °F - 51.8 °F 88% 30.06 in - ESE 2.3 mph - N/A   Clear
6:00 AM 59.0 °F - 53.6 °F 82% 30.06 in - ENE 4.6 mph - N/A   Clear
7:00 AM 60.8 °F - 53.6 °F 77% 30.09 in - South 9.2 mph - N/A   Clear
8:00 AM 68 °F - 56 °F 56%  in 19 mi SE 4.6 mph - -  
8:00 AM 68.0 °F - 55.4 °F 64% 30.09 in - SE 3.5 mph - N/A   Clear
9:00 AM 71.6 °F - 55.4 °F 57% 30.09 in - East 6.9 mph - N/A   Clear
10:00 AM 75.2 °F - 55.4 °F 50% 30.09 in 6.2 mi Variable 3.5 mph - N/A   Partly Cloudy
11:00 AM 78 °F - 55 °F 34%  in 19 mi East 5.8 mph - -   Partly Cloudy
11:00 AM 77.0 °F - 53.6 °F 44% 30.09 in 6.2 mi East 4.6 mph - N/A   Scattered Clouds
12:00 PM 80.6 °F 80.5 °F 55.4 °F 42% 30.06 in 6.2 mi Variable 4.6 mph - N/A   Scattered Clouds
1:00 PM 80.6 °F 80.3 °F 53.6 °F 39% 30.04 in 6.2 mi Variable 6.9 mph - N/A   Mostly Cloudy
1:33 PM 84.2 °F - 51.8 °F 33% 30.04 in 6.2 mi NNW 6.9 mph - N/A   Mostly Cloudy
2:00 PM 87 °F - 47 °F 16%  in 25 mi ENE 2.3 mph - -   Partly Cloudy
2:00 PM 86.0 °F - 46.4 °F 25% 30.04 in 6.2 mi ENE 2.3 mph - N/A   Scattered Clouds
3:00 PM 86.0 °F - 48.2 °F 27% 30.01 in 6.2 mi Variable 5.8 mph - N/A   Scattered Clouds
4:00 PM 87.8 °F - 44.6 °F 22% 29.98 in 6.2 mi West 4.6 mph - N/A   Partly Cloudy
5:00 PM 88 °F - 38 °F 9%  in 25 mi WSW 3.5 mph - -   Scattered Clouds
5:00 PM 87.8 °F - 37.4 °F 17% 29.98 in 6.2 mi WSW 2.3 mph - N/A   Partly Cloudy
6:00 PM 86.0 °F - 46.4 °F 25% 29.98 in 6.2 mi WNW 5.8 mph - N/A   Partly Cloudy
7:00 PM 84.2 °F - 42.8 °F 23% 30.01 in - Variable 2.3 mph - N/A   Clear
8:00 PM 71.6 °F - 53.6 °F 53% 30.04 in 6.2 mi NE 8.1 mph - N/A   Partly Cloudy
9:00 PM 69.8 °F - 53.6 °F 56% 30.04 in 6.2 mi NE 6.9 mph - N/A   Unknown
10:00 PM 68.0 °F - 51.8 °F 56% 30.06 in - NNE 5.8 mph - N/A   Unknown
11:00 PM 68 °F - 56 °F 56%  in - NNE 12.7 mph - -  
11:00 PM 66.2 °F - 55.4 °F 68% 30.09 in - NNE 11.5 mph - N/A   Unknown